SCP
0 0 0 0 0 0 0 0 0 0 0 0 0 0 0 0 0 0 0 0 0 0 0 0 0 0 0 0 0 0 0 0 0 0 0 0 0 0 0 0 0 0 0
0 0 0 0 0 0 0 0 0 0 0 0 0 0 0 0 0 0 0 0 0 0 0 0 0 0 0 0 0 0 0 0 0 0 0 0 0 0 0 0 0 0 0
0 0 1 1 0 0 0 0 0 0 0 0 0 0 0 0 0 0 0 0 0 0 0 0 0 0 0 0 0 0 0 0 0 0 0 0 0 0 0 0 0 0 0
1 1 1 1 1 0 0 0 0 0 0 0 0 0 0 0 0 0 0 0 0 0 0 0 0 0 0 0 0 0 0 0 0 0 0 0 0 0 0 0 0 0 0
1 1 1 1 1 1 0 0 0 0 0 0 0 0 0 0 0 0 0 0 0 0 0 0 0 0 0 0 0 0 0 0 0 0 0 0 0 0 0 0 0 0 0
1 1 1 1 1 1 1 0 0 0 0 0 0 0 0 0 0 0 0 0 0 0 0 0 0 0 0 0 0 0 0 0 0 0 0 0 0 0 0 0 0 0 0
1 1 1 1 1 1 1 1 0 0 0 0 0 0 0 0 0 0 0 0 0 0 0 0 0 0 0 0 0 0 0 0 0 0 0 0 0 0 0 0 0 0 0
1 1 1 1 1 1 1 1 1 0 0 0 0 0 0 0 0 0 0 0 0 0 0 0 0 0 0 0 0 0 0 0 0 0 0 0 0 0 0 0 0 0 0
1 1 1 1 1 1 1 0 0 0 0 0 0 0 0 0 0 0 0 0 0 0 0 0 0 0 0 0 0 0 0 0 0 0 0 0 0 0 0 0 0 0 0
1 1 1 1 1 1 0 0 0 0 0 0 0 0 0 0 0 0 0 0 0 0 0 0 0 0 0 0 0 0 0 0 0 0 0 0 0 0 0 0 0 0 0
0 0 1 1 1 1 0 0 0 0 0 0 0 0 0 0 0 0 0 0 0 0 0 0 0 0 0 0 0 0 0 0 0 0 0 0 0 0 0 0 0 0 0
0 0 0 0 0 0 0 0 0 0 0 0 0 0 0 0 0 0 0 0 0 0 0 0 0 0 0 0 0 0 0 0 0 0 0 0 0 0 0 0 0 0 0
0 0 0 0 0 0 0 0 0 0 0 0 0 0 0 0 0 0 0 0 0 0 0 0 0 0 0 0 0 0 0 0 0 0 0 0 0 0 0 0 0 0 0
0 0 0 0 0 0 0 0 0 0 0 0 0 0 0 0 0 0 0 0 0 0 0 0 0 0 0 0 0 0 0 0 0 0 0 0 0 0 0 0 0 0 0
0 0 0 0 0 0 0 0 0 0 0 0 0 0 0 0 0 0 0 0 0 0 0 0 0 0 0 0 0 0 0 0 0 0 0 0 0 0 0 0 0 0 0
0 0 0 0 0 0 0 0 0 0 0 0 0 0 0 0 0 0 0 0 0 0 0 0 0 0 0 0 0 0 0 0 0 0 0 0 0 0 0 0 0 0 0
0 0 0 0 0 0 0 0 0 0 0 0 0 0 0 0 0 0 0 0 0 0 0 0 0 0 0 0 0 0 0 0 0 0 0 0 0 0 0 0 0 0 0
0 0 0 0 0 0 0 0 0 0 0 0 0 0 0 0 0 0 0 0 0 0 0 0 0 0 0 0 0 0 0 0 0 0 0 0 0 0 0 0 0 0 0
0 0 0 0 0 0 0 0 0 0 0 0 0 0 0 0 0 0 0 0 0 0 0 0 0 0 0 0 0 0 0 0 0 0 0 0 0 0 0 0 0 0 0
0 0 0 0 0 0 0 0 0 0 0 0 0 0 0 0 0 0 0 0 0 0 0 0 0 0 0 0 0 0 0 0 0 0 0 0 0 0 0 0 0 0 0
0 0 0 0 0 0 0 0 0 0 0 0 0 0 0 0 0 0 0 0 0 0 0 0 0 0 0 0 0 0 0 0 0 0 0 0 0 0 0 0 0 0 0
0 0 0 0 0 0 0 0 0 0 0 0 0 0 0 0 0 0 0 0 0 0 0 0 0 0 0 0 0 0 0 0 0 0 0 0 0 0 0 0 0 0 0
0 0 0 0 0 0 0 0 0 0 0 0 0 0 0 0 0 0 0 0 0 0 0 0 0 0 0 0 0 0 0 0 0 0 0 0 0 0 0 0 0 0 0
0 0 0 0 0 0 0 0 0 0 0 0 0 0 0 0 0 0 0 0 0 0 0 0 0 0 0 0 0 0 0 0 0 0 0 0 0 0 0 0 0 0 0
0 0 0 0 0 0 0 0 0 0 0 0 0 0 0 0 0 0 0 0 0 0 0 0 0 0 0 0 0 0 0 0 0 0 0 0 0 0 0 0 0 0 0
0 0 0 0 0 0 0 0 0 0 0 0 0 0 0 0 0 0 0 0 0 0 0 0 0 0 0 0 0 0 0 0 0 0 0 0 0 0 0 0 0 0 0
Wind_Speed
3 4 8 9 10 9 9 9 10 10 9 9 9 9 9 8 8 7 7 6 6 6 6 6 6 6 6 7 7 7 7 7 7 7 7 7 7 7 8 7 6 4 7
6 5 9 9 10 9 9 9 9 9 9 8 9 8 8 8 7 6 6 6 6 5 5 5 5 5 6 6 6 6 6 5 6 6 6 5 5 5 6 6 5 3 6
6 5 7 9 9 9 9 9 8 8 8 7 7 7 7 7 6 6 6 5 5 5 5 5 5 5 5 5 4 5 5 5 4 5 4 2 2 3 4 5 4 4 5
6 5 6 9 9 9 8 8 8 7 7 7 6 6 6 6 5 5 5 5 5 5 5 5 5 5 4 4 3 3 3 3 3 3 2 1 0 2 3 4 4 4 3
5 4 5 9 9 9 8 8 7 7 6 6 6 5 5 5 5 5 5 5 5 5 4 4 4 4 4 3 3 2 1 2 3 2 1 1 1 2 2 3 3 3 3
4 4 5 9 9 8 8 7 7 7 7 6 5 5 5 5 5 5 4 4 4 4 4 3 3 3 3 3 3 2 1 1 2 1 1 1 1 3 3 4 4 3 4
4 4 5 8 8 8 7 7 6 6 6 6 5 5 5 4 4 4 4 4 4 4 3 3 3 3 3 3 2 2 2 1 1 1 1 2 3 5 5 5 5 5 4
5 4 5 8 8 7 7 7 6 6 6 6 5 4 4 4 4 4 4 3 3 3 3 3 3 3 3 3 3 3 3 2 1 1 2 2 5 6 6 6 6 6 6
5 5 5 4 5 7 7 7 6 6 6 6 6 5 5 5 5 4 4 4 3 3 3 3 3 3 3 3 3 3 3 2 1 1 3 2 5 7 7 7 7 7 7
5 5 4 4 4 4 4 7 7 7 7 7 7 6 5 5 5 5 4 4 4 4 4 4 3 3 3 3 4 4 3 2 1 2 2 3 7 8 8 8 7 7 7
4 4 4 4 4 4 4 6 6 6 6 6 5 6 5 2 2 3 4 5 5 4 4 4 4 4 4 4 4 4 3 1 1 2 2 5 7 8 8 8 8 8 7
3 2 3 4 3 3 3 3 3 3 3 3 2 2 2 2 2 3 4 6 5 5 5 5 5 4 3 2 2 3 1 1 1 2 2 6 7 8 8 7 7 7 8
2 2 2 3 3 3 2 2 2 2 2 2 2 2 2 2 2 2 1 2 2 3 2 3 3 2 2 1 1 1 2 1 1 2 3 5 6 6 7 7 7 6 6
3 2 2 2 3 3 2 2 2 1 1 1 1 1 1 1 1 1 1 1 1 1 1 1 1 2 2 2 2 2 2 1 1 1 2 4 4 5 5 5 5 5 5
3 2 1 2 2 2 2 2 2 1 1 1 1 1 1 1 1 1 1 1 1 1 1 1 1 2 2 2 2 2 2 2 2 2 2 3 3 4 4 5 5 5 5
2 2 2 2 2 2 2 2 1 1 1 1 1 1 2 2 1 1 1 1 1 1 1 1 2 2 2 2 2 2 2 2 2 2 1 2 3 4 4 5 5 6 6
2 2 1 1 2 2 2 1 1 1 1 1 1 1 1 1 1 1 0 1 1 2 2 1 2 1 2 2 2 3 2 2 2 2 2 1 2 3 4 5 6 6 6
2 2 1 1 2 2 1 1 1 1 1 1 1 1 2 2 2 1 1 1 1 1 1 1 1 1 2 2 2 2 2 2 2 2 1 1 1 1 2 4 5 6 6
2 2 1 1 1 1 1 1 1 1 1 1 1 1 2 2 2 1 1 1 1 1 1 2 1 1 1 2 2 2 2 2 2 2 2 2 1 1 1 3 4 5 5
2 2 1 1 1 1 1 1 1 1 1 1 1 1 2 2 1 1 1 2 2 1 1 2 1 1 1 2 2 2 2 2 1 1 1 1 2 2 2 2 2 3 5
2 2 1 1 0 1 1 1 0 0 0 1 1 2 2 2 2 1 1 1 2 1 1 1 1 1 1 2 1 2 2 1 1 1 1 1 1 2 2 2 2 2 3
1 1 1 1 0 0 1 1 1 1 0 0 1 2 2 2 2 1 1 1 1 1 1 2 2 1 1 2 1 1 2 2 2 2 1 1 1 2 2 3 2 2 2
1 1 0 0 0 0 1 1 1 1 1 1 2 1 2 2 2 1 1 1 1 1 1 1 1 1 1 1 1 0 0 2 3 2 1 1 1 2 2 2 2 3 3
2 1 0 0 0 1 1 1 1 1 1 1 1 1 2 2 1 1 1 1 1 1 1 2 1 0 0 1 1 1 1 1 2 3 2 2 2 2 3 3 3 3 3
1 1 0 0 0 1 0 1 1 1 1 1 0 1 2 2 2 1 1 1 1 1 1 2 2 1 0 1 1 1 1 1 2 3 4 3 2 2 2 3 3 2 3
0 0 0 0 0 0 0 1 1 2 1 1 0 1 1 2 2 2 1 1 1 1 1 2 1 1 1 1 1 1 1 1 2 2 4 4 4 3 3 2 2 2 2
Wind_Direction
164 172 151 134 127 120 113 106 101 98 96 96 98 96 95 94 94 93 92 89 89 88 89 87 89 87 87 89 91 92 86 85 87 88 84 83 87 95 96 93 90 79 88
150 159 147 136 128 121 115 109 104 100 97 97 98 98 97 96 96 94 90 87 83 80 77 80 84 84 85 90 93 90 88 89 97 95 85 78 85 98 103 105 104 96 95
133 143 147 135 127 121 116 112 108 105 103 100 101 100 99 96 94 91 85 83 80 74 70 70 70 77 82 84 92 96 94 88 97 106 97 83 94 116 120 118 117 110 108
130 132 138 131 127 122 118 114 112 108 105 102 101 101 98 96 94 94 88 81 76 69 64 64 63 60 67 76 79 89 100 103 107 110 110 114 131 148 153 151 145 141 133
119 121 131 123 124 123 119 113 110 108 103 98 99 100 97 92 89 89 84 76 69 62 59 57 57 56 57 57 60 62 73 116 123 115 117 157 216 216 198 191 179 176 171
110 111 127 117 119 119 118 113 110 107 102 94 91 94 91 84 80 79 77 70 65 59 54 47 44 45 46 42 35 25 17 63 110 122 148 211 230 230 223 215 207 203 198
110 102 115 111 111 115 115 109 106 105 103 99 89 85 83 79 73 68 66 65 61 55 48 37 26 30 30 25 17 12 15 22 118 172 216 231 241 237 233 225 220 222 215
110 95 95 95 97 97 98 97 95 94 93 93 89 75 63 63 65 61 57 55 52 45 35 27 17 16 15 13 12 14 17 16 7 249 244 244 250 247 245 239 229 228 229
95 89 80 81 85 85 85 84 85 83 84 83 77 61 52 45 44 49 46 42 37 30 21 15 6 5 5 7 5 6 2 357 8 279 262 255 260 255 255 252 240 233 234
83 81 81 76 72 72 77 78 76 76 77 78 74 63 51 42 32 37 38 34 28 21 12 4 356 355 352 354 357 357 353 347 311 284 270 267 266 261 259 260 251 245 243
81 71 78 81 76 71 77 72 66 65 68 73 70 63 54 38 19 21 29 30 24 20 12 5 2 358 353 348 349 351 351 322 284 271 267 278 273 271 270 267 259 252 248
109 93 84 87 82 75 73 70 61 57 58 67 73 69 60 45 22 25 25 27 24 18 12 9 7 5 2 344 336 343 331 309 284 273 277 286 279 276 275 274 271 262 256
119 101 93 95 89 87 81 76 64 55 52 51 57 59 64 54 24 13 24 13 8 12 8 359 1 358 353 339 327 322 309 300 285 281 290 299 288 280 280 278 279 274 264
114 105 103 100 95 88 90 84 77 64 57 53 48 57 82 70 20 360 26 354 359 350 347 348 340 337 337 328 315 309 304 296 287 285 291 310 302 292 286 288 288 285 276
117 94 96 101 99 97 92 91 83 66 68 64 52 44 77 96 38 352 1 356 344 342 343 336 332 328 330 327 319 313 303 297 290 287 297 321 316 311 306 302 299 298 292
135 118 90 92 96 91 88 89 85 70 66 62 56 39 60 71 39 333 346 355 341 329 321 311 310 311 310 310 316 313 299 294 290 285 285 313 328 322 313 308 306 302 299
145 124 105 111 90 84 83 80 77 62 76 68 46 32 42 58 37 18 28 358 335 332 334 331 329 325 328 328 321 319 315 307 305 302 298 295 311 327 319 312 309 309 305
137 126 107 97 96 85 72 68 76 68 72 63 48 36 26 39 44 36 15 343 331 342 348 341 351 341 332 329 322 324 324 319 317 312 318 319 310 318 324 328 319 316 313
147 135 118 107 118 107 80 77 79 78 65 46 50 42 21 22 32 47 24 345 348 2 3 355 9 348 326 333 326 327 327 318 308 324 342 342 341 346 343 353 346 337 333
122 116 112 105 102 103 83 68 52 50 34 29 41 30 28 10 25 46 41 5 1 25 13 5 348 352 318 319 327 334 317 305 311 322 318 337 354 359 356 352 345 345 347
96 99 108 116 96 111 110 116 111 289 326 7 21 30 29 14 14 48 33 10 7 24 11 359 351 356 357 346 359 342 325 312 332 320 321 338 357 355 353 349 344 342 335
139 114 101 102 127 144 153 164 170 165 250 281 355 18 21 22 2 30 39 9 2 1 14 11 16 9 356 8 12 347 332 334 0 343 345 354 345 353 349 344 338 339 326
158 156 189 337 356 12 62 85 75 62 28 5 357 2 357 12 358 7 15 8 357 358 341 338 3 42 342 343 13 58 334 293 318 308 331 346 348 342 326 324 331 325 325
219 180 178 140 354 359 80 112 135 152 186 254 280 324 339 355 350 7 5 358 357 357 345 330 359 359 130 313 330 335 257 257 287 305 305 328 333 322 314 319 318 315 316
201 178 219 114 27 2 58 142 152 179 202 225 277 1 350 348 346 358 8 2 344 345 335 339 344 345 306 265 278 297 301 293 259 267 288 300 308 295 291 291 293 300 306
143 142 169 147 285 304 145 149 171 200 210 188 282 338 339 342 329 1 14 351 330 333 326 326 326 330 321 302 286 273 263 265 276 272 280 291 295 293 290 287 290 294 299